GW4881 Weather Reports


time (UTC)temp
F
wind
direction
speed
knots
gust
knots
rain 1hr
in
rain 24hr
in
rain mn
in
humidity
%
barometer
mb
20260504205802 78 139 0.0 1.7 0.00 0.00 0.00 67 1013.0
20260504205305 78 235 1.7 2.6 0.00 0.00 0.00 67 1013.0
20260504204806 78 63 0.9 0.9 0.00 0.00 0.00 67 1014.0
20260504204302 78 252 1.7 3.5 0.00 0.00 0.00 67 1013.0
20260504203802 78 233 1.7 3.5 0.00 0.00 0.00 67 1013.0
20260504203303 78 45 0.0 1.7 0.00 0.00 0.00 67 1013.0
20260504202806 78 52 0.0 0.9 0.00 0.00 0.00 67 1013.0
20260504202304 78 234 1.7 2.6 0.00 0.00 0.00 67 1013.0
20260504201804 78 228 0.9 1.7 0.00 0.00 0.00 67 1013.0
20260504201303 78 191 0.0 1.7 0.00 0.00 0.00 67 1013.0
20260504200805 78 245 0.9 2.6 0.00 0.00 0.00 67 1013.0
20260504200304 78 243 0.9 1.7 0.00 0.00 0.00 67 1013.0
20260504195806 78 242 2.6 4.3 0.00 0.00 0.00 67 1013.0
20260504195304 78 222 0.9 2.6 0.00 0.00 0.00 67 1013.0
20260504194804 78 227 1.7 3.5 0.00 0.00 0.00 67 1013.0
20260504194306 78 183 0.9 1.7 0.00 0.00 0.00 67 1013.0
20260504193803 78 228 1.7 3.5 0.00 0.00 0.00 67 1013.0
20260504193302 78 227 0.9 1.7 0.00 0.00 0.00 67 1013.0
20260504192804 78 164 0.9 1.7 0.00 0.00 0.00 67 1013.0
20260504192304 78 232 2.6 5.2 0.00 0.00 0.00 67 1013.0
20260504191802 78 237 1.7 3.5 0.00 0.00 0.00 67 1013.0
20260504191303 79 203 1.7 3.5 0.00 0.00 0.00 66 1013.0
20260504190804 79 218 2.6 3.5 0.00 0.00 0.00 65 1013.0
20260504190306 79 213 1.7 3.5 0.00 0.00 0.00 65 1013.0
20260504185803 79 242 0.9 1.7 0.00 0.00 0.00 64 1013.0
20260504185304 79 238 1.7 4.3 0.00 0.00 0.00 64 1013.0
20260504184803 79 250 0.9 1.7 0.00 0.00 0.00 64 1013.0
20260504184304 79 313 0.0 1.7 0.00 0.00 0.00 64 1014.0
20260504183804 79 172 0.0 0.9 0.00 0.00 0.00 65 1014.0
20260504183304 79 230 2.6 4.3 0.00 0.00 0.00 64 1014.0
20260504182806 79 216 1.7 4.3 0.00 0.00 0.00 63 1014.0
20260504182304 79 330 0.0 1.7 0.00 0.00 0.00 64 1014.0
20260504181803 79 240 1.7 1.7 0.00 0.00 0.00 63 1014.0
20260504181306 79 249 1.7 2.6 0.00 0.00 0.00 63 1014.0
20260504180804 79 227 0.9 1.7 0.00 0.00 0.00 64 1014.0
20260504180303 79 70 0.0 1.7 0.00 0.00 0.00 64 1014.0
20260504175803 79 342 0.9 0.9 0.00 0.00 0.00 64 1014.0
20260504175305 79 219 0.0 1.7 0.00 0.00 0.00 65 1014.0
20260504174806 79 97 0.0 1.7 0.00 0.00 0.00 65 1014.0
20260504174307 79 87 1.7 3.5 0.00 0.00 0.00 65 1014.0
20260504173803 79 55 0.0 1.7 0.00 0.00 0.00 64 1014.0
20260504173304 79 355 0.9 2.6 0.00 0.00 0.00 65 1014.0
20260504172804 79 94 0.9 3.5 0.00 0.00 0.00 65 1014.0
20260504172304 79 30 0.9 2.6 0.00 0.00 0.00 65 1014.0
20260504171803 79 112 0.0 0.9 0.00 0.00 0.00 66 1014.0
20260504171304 79 76 1.7 3.5 0.00 0.00 0.00 65 1014.0
20260504170804 79 53 1.7 3.5 0.00 0.00 0.00 66 1014.0
20260504170304 79 101 0.9 3.5 0.00 0.00 0.00 66 1014.0
20260504160306 80 60 0.9 2.6 0.00 0.00 0.00 64 1014.0
20260504150804 80 328 1.7 2.6 0.00 0.00 0.00 63 1013.0
20260504150305 81 333 0.9 1.7 0.00 0.00 0.00 64 1013.0
20260504141305 81 245 1.7 2.6 0.00 0.00 0.00 64 1013.0
20260504140804 81 303 0.9 2.6 0.00 0.00 0.00 65 1013.0
20260504140302 81 297 0.0 1.7 0.00 0.00 0.00 65 1013.0
20260504130804 84 208 2.6 5.2 0.00 0.00 0.00 60 1012.0
20260504130303 85 289 1.7 3.5 0.00 0.00 0.00 58 1012.0
20260504120305 92 283 1.7 4.3 0.00 0.00 0.00 47 1010.0
20260504110304 92 6 1.7 3.5 0.00 0.00 0.00 49 1010.0
20260504100305 92 74 1.7 2.6 0.00 0.00 0.00 49 1010.0
20260504081804 91 9 4.3 7.8 0.00 0.00 0.00 53 1012.0
20260504081305 91 72 1.7 3.5 0.00 0.00 0.00 53 1012.0
20260504080810 91 192 1.7 3.5 0.00 0.00 0.00 51 1012.0
20260504080304 91 33 2.6 6.1 0.00 0.00 0.00 52 1012.0
20260504070317 89 293 3.5 6.1 0.00 0.00 0.00 57 1014.0
20260504050303 83 301 2.6 5.2 0.00 0.00 0.00 72 1015.0
20260504045803 83 296 1.7 3.5 0.00 0.00 0.00 72 1015.0
20260504045301 83 304 1.7 3.5 0.00 0.00 0.00 71 1015.0
20260504044802 83 283 1.7 4.3 0.00 0.00 0.00 71 1015.0
20260504044301 83 280 1.7 3.5 0.00 0.00 0.00 73 1015.0
20260504043802 83 291 3.5 5.2 0.00 0.00 0.00 73 1015.0
20260504043307 82 288 1.7 3.5 0.00 0.00 0.00 75 1015.0
20260504042801 82 271 1.7 2.6 0.00 0.00 0.00 75 1015.0
20260504042304 82 282 1.7 4.3 0.00 0.00 0.00 74 1015.0
20260504041804 82 312 0.9 2.6 0.00 0.00 0.00 76 1015.0
20260504041302 82 349 1.7 2.6 0.00 0.00 0.00 76 1015.0
20260504040801 82 318 1.7 2.6 0.00 0.00 0.00 78 1015.0
20260504040301 81 325 3.5 5.2 0.00 0.00 0.00 77 1015.0
20260504035802 81 221 1.7 4.3 0.00 0.00 0.00 78 1015.0
20260504035304 81 304 1.7 2.6 0.00 0.00 0.00 80 1015.0
20260504034801 81 285 1.7 3.5 0.00 0.00 0.00 79 1015.0
20260504034301 80 300 3.5 5.2 0.00 0.00 0.00 80 1015.0
20260504033802 80 314 2.6 5.2 0.00 0.00 0.00 81 1015.0
20260504033302 79 298 1.7 3.5 0.00 0.00 0.00 83 1015.0
20260504032803 79 302 5.2 7.8 0.00 0.00 0.00 82 1015.0
20260504032303 79 318 0.9 1.7 0.00 0.00 0.00 83 1015.0
20260504031802 79 307 1.7 3.5 0.00 0.00 0.00 82 1015.0
20260504031303 79 307 2.6 5.2 0.00 0.00 0.00 82 1015.0
20260504030802 79 299 0.9 1.7 0.00 0.00 0.00 82 1015.0
20260504030302 79 302 0.9 2.6 0.00 0.00 0.00 82 1015.0
20260504025801 78 310 2.6 4.3 0.00 0.00 0.00 81 1015.0
20260504025304 78 202 0.9 2.6 0.00 0.00 0.00 80 1015.0
20260504024804 78 319 1.7 2.6 0.00 0.00 0.00 80 1015.0
20260504024302 77 245 1.7 2.6 0.00 0.00 0.00 81 1014.0
20260504023802 77 285 1.7 2.6 0.00 0.00 0.00 82 1014.0
20260504023303 76 211 0.9 1.7 0.00 0.00 0.00 82 1014.0
20260504022802 76 222 0.9 1.7 0.00 0.00 0.00 82 1014.0
20260504022304 75 277 0.9 1.7 0.00 0.00 0.00 83 1014.0
20260504021801 75 184 1.7 3.5 0.00 0.00 0.00 84 1014.0
20260504021301 75 196 1.7 2.6 0.00 0.00 0.00 84 1014.0
20260504020802 74 23 0.9 1.7 0.00 0.00 0.00 86 1014.0
20260504020302 74 283 0.9 1.7 0.00 0.00 0.00 85 1014.0
20260504015801 73 223 1.7 3.5 0.00 0.00 0.00 85 1014.0
20260504015301 73 235 1.7 2.6 0.00 0.00 0.00 86 1014.0
20260504014807 72 234 0.9 2.6 0.00 0.00 0.00 88 1014.0
20260504014301 72 259 0.0 1.7 0.00 0.00 0.00 89 1014.0
20260504013802 72 219 2.6 3.5 0.00 0.00 0.00 90 1014.0
20260504013302 71 272 0.9 1.7 0.00 0.00 0.00 90 1014.0
20260504012802 71 236 1.7 3.5 0.00 0.00 0.00 90 1014.0
20260504012303 72 255 1.7 3.5 0.00 0.00 0.00 90 1014.0
20260504011801 72 245 0.9 1.7 0.00 0.00 0.00 90 1014.0
20260504011301 71 251 1.7 4.3 0.00 0.00 0.00 90 1014.0
20260504010802 71 260 0.9 1.7 0.00 0.00 0.00 90 1014.0
20260504010302 71 302 0.9 1.7 0.00 0.00 0.00 91 1014.0
20260504005801 71 243 0.0 0.9 0.00 0.00 0.00 91 1014.0
20260504005301 71 77 0.0 0.9 0.00 0.00 0.00 91 1014.0
20260504004803 70 256 0.9 2.6 0.00 0.00 0.00 92 1014.0
20260504004301 70 277 0.9 1.7 0.00 0.00 0.00 92 1014.0
20260504003801 70 246 1.7 2.6 0.00 0.00 0.00 93 1014.0
20260504003301 70 202 0.0 0.9 0.00 0.00 0.00 93 1014.0
20260504002802 70 263 1.7 2.6 0.00 0.00 0.00 92 1014.0
20260504002301 70 193 0.0 1.7 0.00 0.00 0.00 92 1014.0
20260504001802 70 56 1.7 1.7 0.00 0.00 0.00 91 1014.0
20260504001302 70 178 0.9 1.7 0.00 0.00 0.00 90 1014.0
20260504000802 70 67 0.9 1.7 0.00 0.00 0.00 89 1014.0
20260504000302 70 69 1.7 5.2 0.00 0.00 0.00 88 1014.0
20260503235801 70 174 0.9 1.7 0.00 0.00 0.00 88 1014.0
20260503235301 70 65 0.9 1.7 0.00 0.00 0.00 89 1014.0
20260503234802 71 294 1.7 2.6 0.00 0.00 0.00 89 1014.0
20260503234302 73 104 3.5 6.1 0.00 0.00 0.00 88 1014.0
20260503233801 76 76 3.5 7.0 0.00 0.00 0.00 83 1014.0
20260503233301 77 27 2.6 7.8 0.00 0.00 0.00 86 1014.0
20260503232801 77 109 0.0 1.7 0.00 0.00 0.00 86 1014.0
20260503232301 77 277 0.0 0.9 0.00 0.00 0.00 86 1013.0
20260503231801 77 229 1.7 3.5 0.00 0.00 0.00 86 1013.0
20260503231302 78 261 0.9 2.6 0.00 0.00 0.00 86 1013.0
20260503230801 78 193 1.7 2.6 0.00 0.00 0.00 86 1013.0
20260503230301 78 267 0.9 1.7 0.00 0.00 0.00 86 1013.0
20260503225802 77 228 0.9 2.6 0.00 0.00 0.00 86 1013.0
20260503225304 77 235 2.6 4.3 0.00 0.00 0.00 85 1013.0
20260503224801 77 233 0.0 0.9 0.00 0.00 0.00 86 1013.0
20260503224301 77 202 0.9 1.7 0.00 0.00 0.00 86 1013.0
20260503223802 77 245 1.7 2.6 0.00 0.00 0.00 86 1013.0
20260503223301 77 256 0.9 1.7 0.00 0.00 0.00 86 1013.0
20260503222802 77 259 0.9 1.7 0.00 0.00 0.00 87 1013.0
20260503222304 77 240 1.7 3.5 0.00 0.00 0.00 86 1013.0
20260503221802 77 248 0.0 1.7 0.00 0.00 0.00 86 1013.0
20260503221301 77 228 0.9 1.7 0.00 0.00 0.00 86 1013.0
20260503220802 77 229 1.7 2.6 0.00 0.00 0.00 86 1013.0
20260503220302 77 37 0.0 0.9 0.00 0.00 0.00 86 1013.0
20260503215802 77 229 0.9 1.7 0.00 0.00 0.00 86 1013.0
20260503215304 77 233 1.7 3.5 0.00 0.00 0.00 86 1012.0
20260503214801 77 263 1.7 2.6 0.00 0.00 0.00 86 1012.0
20260503214302 78 259 1.7 2.6 0.00 0.00 0.00 86 1012.0
20260503213801 78 359 0.0 1.7 0.00 0.00 0.00 86 1012.0
20260503213302 78 113 0.9 1.7 0.00 0.00 0.00 86 1012.0
20260503212802 78 231 1.7 3.5 0.00 0.00 0.00 86 1012.0
20260503212301 78 242 2.6 3.5 0.00 0.00 0.00 86 1012.0
20260503211802 78 258 0.9 2.6 0.00 0.00 0.00 85 1012.0
20260503211301 78 229 1.7 3.5 0.00 0.00 0.00 85 1012.0
20260503210801 78 221 1.7 3.5 0.00 0.00 0.00 85 1012.0
20260503210301 78 241 2.6 4.3 0.00 0.00 0.00 85 1012.0